[[{"header":{"parameterUnit":"m.s-1","parameterCategory":1,"la1":30.2991,"la2":30.254,"lo1":-89.0895,"lo2":-89.0444,"dy":0.0017,"dx":0.0017,"nx":28,"ny":28,"refTime":"2025-09-05T09:00:00:Z","depth":0,"parameterNumber":2,"parameterNumberName":"U-component_of_WINDS"},"data":[0,0,0,0,0,0,0,0,0,0,0,0,0,0,0,0,0,0,0,0,0,0,0,0,0,0,0,0,0,0,0,0,0,0,0,0,0,0,0,0,0,0,0,0,0,0,0,0,0,0,0,0,0,0,0,0,0,0,-1.0365,-1.0365,0,-1.0288,-1.0287,-1.0286,-1.0218,-1.0218,-1.0217,-1.0216,-1.0135,-1.0133,-1.0132,0,0,0,0,0,0,0,0,0,0,0,0,0,-1.0454,-1.0453,-1.0365,-1.0364,-1.0363,-1.0288,-1.0287,-1.0286,-1.0219,-1.0218,-1.0217,-1.0216,-1.0135,-1.0134,-1.0132,0,0,0,0,0,0,0,0,0,0,0,0,0,-1.04,-1.0453,-1.0366,-1.0321,-1.0316,-1.0288,-1.0287,-1.0286,-1.0219,-1.0218,-1.0216,-1.0215,-1.0136,-1.0134,-1.0132,-1.0141,0,0,-1.0125,-1.0124,0,0,0,0,0,0,0,0,-1.0403,-1.0397,-1.0328,-1.0324,-1.0318,-1.0262,-1.0288,-1.0237,-1.0219,-1.0256,-1.0216,-1.0215,-1.0178,-1.0172,-1.016,-1.0137,-1.0134,-1.0125,-1.0123,-1.0122,-1.0122,0,0,0,0,0,0,0,-1.0407,-1.04,-1.0335,-1.0327,-1.0321,-1.0304,-1.0295,-1.0278,-1.0224,-1.0252,-1.0247,-1.0239,-1.0175,-1.0162,-1.0158,-1.0133,-1.0125,-1.0123,-1.0121,-1.0121,-1.0115,-1.0116,0,0,0,0,0,0,-1.0418,-1.0403,-1.0337,-1.0332,-1.0359,-1.0304,-1.0294,-1.0281,-1.0224,-1.0214,-1.024,-1.0236,-1.0167,-1.016,-1.0154,-1.0162,-1.0122,-1.012,-1.0119,-1.0113,-1.0115,-1.0116,0,0,0,0,0,0,-1.042,-1.0413,-1.034,-1.0366,-1.0356,-1.0303,-1.029,-1.028,-1.0267,-1.0215,-1.0205,-1.0237,-1.0165,-1.0158,-1.0145,-1.0158,-1.0119,-1.0117,-1.0112,-1.0114,-1.0115,-1.0178,0,0,0,0,0,0,-1.0423,-1.0414,-1.0417,-1.0367,-1.0355,-1.0333,-1.0291,-1.0279,-1.0264,-1.0258,-1.021,-1.02,-1.0164,-1.0149,-1.0143,-1.0155,-1.0116,-1.0111,-1.0113,-1.0115,-1.0175,-1.0182,-1.0188,0,0,0,0,0,-1.0426,-1.0437,-1.0418,-1.041,-1.0358,-1.0334,-1.0327,-1.0285,-1.0265,-1.0268,-1.0235,-1.0202,-1.0158,-1.0148,-1.0141,-1.0152,-1.011,-1.0112,-1.0115,-1.0172,-1.018,-1.0188,0,0,0,0,0,0,-1.0489,-1.043,-1.0407,-1.0402,-1.0374,-1.0322,-1.0324,-1.0295,-1.0271,-1.0267,-1.0215,-1.0205,-1.0199,-1.0174,-1.0164,-1.0159,-1.013,-1.0131,-1.0175,-1.0183,-1.019,-1.0195,-1.0114,0,0,0,0,0,-1.0503,-1.0489,-1.0437,-1.0438,-1.0425,-1.0377,-1.0365,-1.0336,-1.0304,-1.0291,-1.0256,-1.0226,-1.0205,-1.0193,-1.0171,-1.0171,-1.0159,-1.0175,-1.0182,-1.0188,-1.0189,-1.0188,-1.0194,-1.0125,-1.0125,-1.0125,0,0,-1.053,-1.0496,-1.049,-1.045,-1.0424,-1.041,-1.0367,-1.0354,-1.0344,-1.0289,-1.0275,-1.0249,-1.0212,-1.0206,-1.0202,-1.0185,-1.0206,-1.0191,-1.0196,-1.0194,-1.0191,-1.0198,-1.0204,-1.0126,-1.0126,-1.0126,0,0,-1.0573,-1.0546,-1.0543,-1.0519,-1.0481,-1.0449,-1.0449,-1.0402,-1.0383,-1.0369,-1.0328,-1.0314,-1.028,-1.0255,-1.0238,-1.0273,-1.0242,-1.0268,-1.0302,-1.0301,-1.0307,-1.0311,-1.0324,-1.0329,-1.0269,-1.0269,-1.027,0,-1.0611,-1.0589,-1.0546,-1.0536,-1.0519,-1.047,-1.0467,-1.0446,-1.0402,-1.0392,-1.0375,-1.0331,-1.0303,-1.0291,-1.03,-1.0287,-1.0285,-1.0272,-1.031,-1.0314,-1.0317,-1.0329,-1.0334,-1.0273,-1.0272,-1.0272,-1.0272,0,-1.0639,-1.0624,-1.0627,-1.0587,-1.0571,-1.0565,-1.0521,-1.0509,-1.0482,-1.0453,-1.0439,-1.0403,-1.0374,-1.0369,-1.0341,-1.0353,-1.0344,-1.0319,-1.0288,-1.0328,-1.0338,-1.0342,-1.0278,-1.0276,-1.0275,-1.0275,0,0,-1.0718,-1.0656,-1.0657,-1.0639,-1.0594,-1.0582,-1.0574,-1.0545,-1.0537,-1.0509,-1.0501,-1.0474,-1.045,-1.0431,-1.0401,-1.04,-1.0431,-1.0375,-1.0373,-1.0387,-1.0442,-1.0462,-1.0467,-1.041,-1.0411,-1.0411,-1.0445,0,-1.0754,-1.0736,-1.0697,-1.0692,-1.0678,-1.0632,-1.0625,-1.0596,-1.0569,-1.0553,-1.0522,-1.0504,-1.0475,-1.0463,-1.046,-1.0428,-1.0441,-1.0425,-1.0402,-1.0402,-1.0413,-1.0472,-1.0492,-1.0526,-1.0449,-1.045,-1.045,0,-1.0792,-1.0768,-1.0762,-1.0719,-1.0711,-1.0706,-1.0677,-1.0663,-1.063,-1.061,-1.059,-1.0556,-1.0545,-1.0517,-1.0501,-1.0491,-1.0479,-1.0462,-1.0462,-1.0458,-1.0428,-1.047,-1.0536,-1.0541,-1.0456,-1.0455,-1.0455,0,-1.0851,-1.0817,-1.0809,-1.0795,-1.0744,-1.0741,-1.072,-1.0686,-1.0672,-1.0647,-1.0637,-1.0611,-1.0597,-1.0578,-1.0538,-1.0522,-1.0527,-1.0495,-1.051,-1.0511,-1.0512,-1.0513,-1.0577,-1.0505,-1.0505,-1.0505,-1.0505,0,-1.0895,-1.0893,-1.0835,-1.083,-1.0827,-1.0782,-1.078,-1.0754,-1.0725,-1.0714,-1.0672,-1.0663,-1.0611,-1.0596,-1.0565,-1.0557,-1.055,-1.0534,-1.0526,-1.0537,-1.054,-1.0529,-1.0526,-1.0506,-1.0506,-1.0506,-1.0506,0,-1.096,-1.0921,-1.0909,-1.0863,-1.0851,-1.0851,-1.081,-1.0804,-1.0775,-1.0761,-1.0756,-1.0709,-1.0689,-1.0648,-1.0617,-1.0596,-1.0595,-1.058,-1.0606,-1.0601,-1.0618,-1.0617,-1.0678,-1.0683,-1.0608,-1.0609,-1.061,0,-1.099,-1.0988,-1.0941,-1.0931,-1.0912,-1.0896,-1.0882,-1.0838,-1.0825,-1.0788,-1.0786,-1.0763,-1.0742,-1.0713,-1.0676,-1.0652,-1.0636,-1.0659,-1.0632,-1.0645,-1.0637,-1.0638,-1.0637,-1.0665,-1.0666,-1.0667,-1.0668,0,-1.1048,-1.103,-1.1011,-1.0986,-1.097,-1.0948,-1.0924,-1.0918,-1.0869,-1.0856,-1.0836,-1.082,-1.0788,-1.0766,-1.0736,-1.0714,-1.0683,-1.0677,-1.0679,-1.0691,-1.0706,-1.0698,-1.0623,-1.0675,-1.0675,-1.0674,-1.0674,-1.0673,-1.1097,-1.1093,-1.106,-1.1041,-1.1018,-1.0996,-1.0988,-1.0958,-1.0941,-1.0912,-1.0887,-1.0869,-1.0837,-1.0794,-1.0774,-1.0759,-1.0744,-1.0747,-1.0747,-1.0749,-1.0754,-1.0709,-1.0754,-1.0753,-1.0753,-1.0753,-1.0753,0,-1.1153,-1.113,-1.1113,-1.108,-1.1066,-1.1038,-1.101,-1.1,-1.0984,-1.0957,-1.0938,-1.0915,-1.0893,-1.0856,-1.0831,-1.0826,-1.0811,-1.0821,-1.0821,-1.0816,-1.0769,-1.077,-1.0834,-1.0834,-1.0834,-1.0834,-1.0834,-1.0834,-1.1181,-1.1173,-1.115,-1.1131,-1.1107,-1.109,-1.1076,-1.1056,-1.1034,-1.1011,-1.0993,-1.0969,-1.0937,-1.091,-1.0889,-1.0878,-1.0871,-1.0886,-1.0871,-1.0827,-1.082,-1.0812,-1.0813,-1.0885,-1.0885,-1.0919,-1.092,-1.092]},{"header":{"parameterUnit":"m.s-1","parameterCategory":1,"la1":30.2991,"la2":30.254,"lo1":-89.0895,"lo2":-89.0444,"dy":0.0017,"dx":0.0017,"nx":28,"ny":28,"refTime":"2025-09-05T09:00:00:Z","depth":0,"parameterNumber":3,"parameterNumberName":"V-component_of_WINDS"},"data":[0,0,0,0,0,0,0,0,0,0,0,0,0,0,0,0,0,0,0,0,0,0,0,0,0,0,0,0,0,0,0,0,0,0,0,0,0,0,0,0,0,0,0,0,0,0,0,0,0,0,0,0,0,0,0,0,0,0,1.6972,1.6972,0,1.694,1.6939,1.6939,1.6934,1.6934,1.6935,1.6935,1.6896,1.6895,1.6894,0,0,0,0,0,0,0,0,0,0,0,0,0,1.7027,1.7026,1.6972,1.6972,1.6972,1.694,1.6939,1.6939,1.6934,1.6934,1.6935,1.6935,1.6897,1.6895,1.6894,0,0,0,0,0,0,0,0,0,0,0,0,0,1.6999,1.7025,1.6973,1.6966,1.6965,1.694,1.6939,1.6939,1.6934,1.6934,1.6935,1.6935,1.6897,1.6895,1.6894,1.6872,0,0,1.6887,1.6887,0,0,0,0,0,0,0,0,1.7001,1.6997,1.6967,1.6966,1.6965,1.6942,1.6944,1.6916,1.6934,1.6945,1.6935,1.6935,1.6911,1.6908,1.69,1.687,1.6869,1.6887,1.6886,1.6885,1.6885,0,0,0,0,0,0,0,1.7003,1.6999,1.6959,1.6966,1.6965,1.6963,1.6959,1.6939,1.6926,1.6944,1.6944,1.694,1.691,1.6902,1.6899,1.6868,1.6887,1.6886,1.6884,1.6884,1.6819,1.6818,0,0,0,0,0,0,1.7007,1.7,1.696,1.6958,1.6985,1.6961,1.6958,1.6948,1.6926,1.6923,1.694,1.694,1.6905,1.6902,1.6898,1.6871,1.6885,1.6883,1.6882,1.6819,1.6819,1.6818,0,0,0,0,0,0,1.7008,1.7003,1.6962,1.6979,1.6974,1.696,1.695,1.6948,1.694,1.6923,1.692,1.6935,1.6906,1.6901,1.6879,1.687,1.6883,1.6881,1.682,1.6819,1.6818,1.6818,0,0,0,0,0,0,1.7009,1.7004,1.6996,1.6979,1.6973,1.6944,1.6949,1.6947,1.6937,1.6937,1.6917,1.6914,1.6906,1.6882,1.6877,1.6868,1.6879,1.6821,1.6819,1.6818,1.6819,1.6817,1.6816,0,0,0,0,0,1.7011,1.6996,1.6996,1.6991,1.6964,1.6944,1.694,1.6932,1.6936,1.6928,1.6917,1.6915,1.6872,1.688,1.6874,1.6864,1.6821,1.682,1.6819,1.6819,1.6818,1.6816,0,0,0,0,0,0,1.7011,1.6994,1.6993,1.6973,1.696,1.6943,1.6933,1.6931,1.6915,1.6916,1.6905,1.6901,1.6879,1.6869,1.6878,1.6842,1.6847,1.6844,1.6849,1.6847,1.6846,1.6849,1.6878,0,0,0,0,0,1.7009,1.6995,1.6981,1.6964,1.6958,1.6947,1.6937,1.6933,1.6919,1.6913,1.69,1.6885,1.6868,1.6857,1.6841,1.6818,1.6813,1.6808,1.6807,1.6806,1.6803,1.679,1.6788,1.6814,1.6814,1.6814,0,0,1.7003,1.6992,1.6984,1.6964,1.6953,1.6939,1.6942,1.6926,1.6915,1.691,1.6889,1.6879,1.6862,1.6839,1.6828,1.683,1.6795,1.6804,1.6803,1.6802,1.6789,1.6786,1.6784,1.6813,1.6813,1.6813,0,0,1.6986,1.6977,1.6962,1.6952,1.6937,1.693,1.6926,1.691,1.6904,1.6883,1.6879,1.6865,1.6836,1.6824,1.6814,1.6794,1.679,1.6788,1.6781,1.6768,1.6766,1.6764,1.6756,1.6754,1.6786,1.6786,1.6786,0,1.698,1.696,1.6954,1.6939,1.6929,1.6926,1.6911,1.6901,1.688,1.6873,1.6876,1.6841,1.6829,1.6803,1.6799,1.6791,1.6785,1.679,1.6767,1.6765,1.6763,1.6756,1.6753,1.6786,1.6786,1.6786,1.6786,0,1.6954,1.694,1.6929,1.6912,1.6901,1.6886,1.6876,1.6866,1.6863,1.6855,1.6833,1.6819,1.68,1.6794,1.6789,1.6767,1.6769,1.677,1.6774,1.6761,1.6753,1.675,1.6786,1.6786,1.6786,1.6786,0,0,1.6934,1.6915,1.6911,1.6903,1.6887,1.6875,1.6859,1.6842,1.6834,1.682,1.6805,1.6782,1.6783,1.6772,1.6766,1.6755,1.6739,1.6757,1.6756,1.6753,1.6713,1.6713,1.6709,1.6737,1.6737,1.6736,1.6715,0,1.6915,1.6888,1.6883,1.6859,1.6845,1.6843,1.6829,1.6816,1.6809,1.6795,1.6786,1.6769,1.6772,1.6765,1.6754,1.6743,1.6731,1.6745,1.6722,1.6722,1.6726,1.6706,1.6705,1.6685,1.6712,1.6711,1.6711,0,1.6888,1.6876,1.6851,1.6838,1.6831,1.6819,1.6803,1.6791,1.6777,1.6772,1.676,1.6756,1.6738,1.6744,1.6719,1.6728,1.6719,1.6712,1.6711,1.6708,1.6715,1.6701,1.6679,1.6676,1.6706,1.6707,1.6707,0,1.6876,1.6853,1.6836,1.6829,1.6812,1.6804,1.6796,1.6783,1.6773,1.6759,1.6752,1.6735,1.6726,1.6712,1.6703,1.6709,1.6678,1.6684,1.6673,1.6673,1.6666,1.6666,1.6641,1.6661,1.6661,1.6661,1.6661,0,1.6854,1.6839,1.683,1.6819,1.6802,1.6795,1.6778,1.677,1.6759,1.6745,1.6741,1.6728,1.6717,1.6703,1.6695,1.6675,1.6671,1.6666,1.6664,1.6666,1.6666,1.6658,1.6659,1.666,1.666,1.6661,1.6661,0,1.6837,1.6831,1.6811,1.6798,1.6794,1.6782,1.677,1.6758,1.6751,1.6734,1.673,1.6718,1.67,1.669,1.6668,1.6663,1.664,1.6639,1.6646,1.6645,1.6634,1.6635,1.6602,1.6597,1.6621,1.6621,1.6621,0,1.6824,1.6812,1.6798,1.679,1.6783,1.6769,1.676,1.6753,1.6743,1.6726,1.6717,1.67,1.6686,1.6658,1.6646,1.6629,1.6627,1.6616,1.6624,1.6626,1.6626,1.6626,1.6625,1.6615,1.6615,1.6614,1.6614,0,1.68,1.6798,1.6785,1.6771,1.6761,1.6749,1.6738,1.6731,1.6722,1.6711,1.6694,1.6683,1.6661,1.6644,1.6626,1.6616,1.6613,1.6612,1.6609,1.661,1.6614,1.6611,1.6641,1.6613,1.6613,1.6613,1.6613,1.6613,1.6784,1.6774,1.6762,1.6749,1.674,1.6729,1.6718,1.671,1.6697,1.668,1.6676,1.6658,1.6644,1.662,1.661,1.6595,1.6597,1.6592,1.659,1.6589,1.6588,1.6617,1.6592,1.6592,1.6592,1.6592,1.6592,0,1.6759,1.6753,1.674,1.6725,1.6714,1.6714,1.6702,1.6692,1.6677,1.6665,1.6652,1.6632,1.6615,1.6603,1.6586,1.6576,1.6574,1.6572,1.6572,1.6569,1.6588,1.6593,1.6573,1.6573,1.6573,1.6573,1.6573,1.6573,1.6746,1.6728,1.6725,1.6703,1.6695,1.6679,1.6672,1.6662,1.6653,1.6632,1.6618,1.6611,1.6599,1.6581,1.6565,1.6562,1.6555,1.6553,1.6549,1.6566,1.6568,1.657,1.6574,1.6551,1.6551,1.6531,1.6531,1.6531]}]]